When you browse on this site, cookies collect data to enhance your experience and personalize the content and advertising you see.
Visit our Privacy Policy to learn more. By continuing to use the site, you agree to this use of cookies and data.
  • In Czech Republic
  • List of Countries
  • For 7 days
  • Water Temperature
  • Satellite Maps
  • Weather Map
  • Weather Widgets
  • user-avatar
    Login

    Hourly Weather Cuilapa

    Today, 20 July, Saturday

    Time Temperature Precipitation Wind Pressure Humidity
    00:00 +20°C° 0 mm 2 mps 685 mmHg 90%
    01:00 +20°C° 0 mm 2 mps 685 mmHg 90%
    02:00 +20°C° 0 mm 2 mps 684 mmHg 89%
    03:00 +20°C° 0 mm 2 mps 684 mmHg 88%
    04:00 +20°C° 0 mm 2 mps 684 mmHg 88%
    05:00 +20°C° 0 mm 2 mps 684 mmHg 88%
    06:00 +20°C° 0 mm 2 mps 684 mmHg 88%
    07:00 +23°C° 0 mm 2 mps 685 mmHg 83%
    08:00 +25°C° 0 mm 1 mps 686 mmHg 77%
    09:00 +27°C° 0 mm 1 mps 687 mmHg 71%
    10:00 +28°C° 0.3 mm 1 mps 687 mmHg 69%
    11:00 +29°C° 0.3 mm 2 mps 686 mmHg 67%
    12:00 +30°C° 0.3 mm 2 mps 686 mmHg 65%
    13:00 +29°C° 1.4 mm 2 mps 686 mmHg 71%
    14:00 +28°C° 1.4 mm 1 mps 685 mmHg 77%
    15:00 +28°C° 1.4 mm 1 mps 684 mmHg 83%
    16:00 +27°C° 1 mm 1 mps 684 mmHg 86%
    17:00 +26°C° 1 mm 1 mps 684 mmHg 89%
    18:00 +25°C° 1 mm 1 mps 684 mmHg 92%
    19:00 +24°C° 0.3 mm 1 mps 684 mmHg 92%
    20:00 +23°C° 0.3 mm 2 mps 685 mmHg 92%
    21:00 +21°C° 0.3 mm 2 mps 685 mmHg 92%
    22:00 +21°C° 0.1 mm 2 mps 685 mmHg 90%
    23:00 +21°C° 0.1 mm 2 mps 685 mmHg 88%

    Tomorrow, 21 July, Sunday

    Time Temperature Precipitation Wind Pressure Humidity
    00:00 +21°C° 0.1 mm 2 mps 685 mmHg 86%
    01:00 +21°C° 0 mm 2 mps 685 mmHg 84%
    02:00 +21°C° 0 mm 2 mps 684 mmHg 83%
    03:00 +21°C° 0 mm 2 mps 684 mmHg 81%
    04:00 +21°C° 0 mm 2 mps 684 mmHg 81%
    05:00 +20°C° 0 mm 2 mps 684 mmHg 81%
    06:00 +20°C° 0 mm 2 mps 684 mmHg 82%
    07:00 +23°C° 0 mm 2 mps 685 mmHg 76%
    08:00 +25°C° 0 mm 1 mps 686 mmHg 70%
    09:00 +27°C° 0 mm 1 mps 687 mmHg 64%
    10:00 +29°C° 0 mm 1 mps 687 mmHg 60%
    11:00 +30°C° 0 mm 2 mps 687 mmHg 57%
    12:00 +31°C° 0 mm 2 mps 687 mmHg 53%
    13:00 +31°C° 0.2 mm 2 mps 686 mmHg 57%
    14:00 +30°C° 0.2 mm 2 mps 685 mmHg 61%
    15:00 +30°C° 0.2 mm 2 mps 685 mmHg 65%
    16:00 +28°C° 0.8 mm 1 mps 685 mmHg 74%
    17:00 +27°C° 0.8 mm 1 mps 685 mmHg 83%
    18:00 +25°C° 0.8 mm 1 mps 684 mmHg 92%
    19:00 +24°C° 0.6 mm 1 mps 685 mmHg 92%
    20:00 +23°C° 0.6 mm 1 mps 685 mmHg 92%
    21:00 +22°C° 0.6 mm 1 mps 685 mmHg 93%
    22:00 +22°C° 0.3 mm 1 mps 685 mmHg 92%
    23:00 +21°C° 0.3 mm 2 mps 685 mmHg 92%

    Day after tomorrow, 22 July, Monday

    Time Temperature Precipitation Wind Pressure Humidity
    00:00 +20°C° 0.3 mm 2 mps 685 mmHg 91%
    01:00 +20°C° 0.1 mm 2 mps 685 mmHg 90%
    02:00 +20°C° 0.1 mm 2 mps 685 mmHg 90%
    03:00 +20°C° 0.1 mm 2 mps 684 mmHg 89%
    04:00 +20°C° 0 mm 2 mps 685 mmHg 88%
    05:00 +20°C° 0 mm 2 mps 685 mmHg 88%
    06:00 +20°C° 0 mm 2 mps 685 mmHg 87%
    07:00 +23°C° 0 mm 1 mps 686 mmHg 81%
    08:00 +25°C° 0 mm 1 mps 686 mmHg 75%
    09:00 +27°C° 0 mm 1 mps 687 mmHg 69%
    10:00 +28°C° 0 mm 1 mps 687 mmHg 65%
    11:00 +29°C° 0 mm 1 mps 687 mmHg 61%
    12:00 +31°C° 0 mm 2 mps 687 mmHg 56%
    13:00 +30°C° 0.1 mm 2 mps 686 mmHg 59%
    14:00 +30°C° 0.1 mm 2 mps 686 mmHg 61%
    15:00 +29°C° 0.1 mm 2 mps 685 mmHg 64%
    16:00 +28°C° 0.3 mm 1 mps 685 mmHg 73%
    17:00 +27°C° 0.3 mm 1 mps 685 mmHg 82%
    18:00 +25°C° 0.3 mm 1 mps 685 mmHg 90%
    19:00 +24°C° 0.3 mm 1 mps 685 mmHg 91%
    20:00 +23°C° 0.3 mm 1 mps 686 mmHg 92%
    21:00 +22°C° 0.3 mm 1 mps 686 mmHg 93%
    22:00 +21°C° 0.1 mm 1 mps 686 mmHg 92%
    23:00 +21°C° 0.1 mm 1 mps 686 mmHg 91%

    23 July, Tuesday

    Time Temperature Precipitation Wind Pressure Humidity
    00:00 +20°C° 0.1 mm 2 mps 686 mmHg 90%
    01:00 +20°C° 0 mm 2 mps 685 mmHg 89%
    02:00 +20°C° 0 mm 2 mps 685 mmHg 88%
    03:00 +19°C° 0 mm 2 mps 685 mmHg 87%
    04:00 +20°C° 0 mm 1 mps 685 mmHg 86%
    05:00 +20°C° 0 mm 1 mps 685 mmHg 86%
    06:00 +20°C° 0 mm 1 mps 685 mmHg 85%
    07:00 +23°C° 0 mm 1 mps 686 mmHg 79%
    08:00 +25°C° 0 mm 1 mps 687 mmHg 73%
    09:00 +26°C° 0 mm 0 mps 688 mmHg 66%
    10:00 +28°C° 0 mm 1 mps 688 mmHg 64%
    11:00 +29°C° 0 mm 1 mps 687 mmHg 62%
    12:00 +30°C° 0 mm 2 mps 687 mmHg 60%
    13:00 +29°C° 0.6 mm 1 mps 686 mmHg 64%
    14:00 +29°C° 0.6 mm 1 mps 686 mmHg 68%
    15:00 +28°C° 0.6 mm 1 mps 685 mmHg 72%
    16:00 +27°C° 0.3 mm 1 mps 685 mmHg 79%
    17:00 +26°C° 0.3 mm 1 mps 685 mmHg 86%
    18:00 +25°C° 0.3 mm 1 mps 685 mmHg 92%
    19:00 +24°C° 0.3 mm 1 mps 685 mmHg 93%
    20:00 +23°C° 0.3 mm 1 mps 686 mmHg 94%
    21:00 +22°C° 0.3 mm 1 mps 686 mmHg 95%
    22:00 +21°C° 0.1 mm 1 mps 686 mmHg 94%
    23:00 +21°C° 0.1 mm 1 mps 686 mmHg 94%

    24 July, Wednesday

    Time Temperature Precipitation Wind Pressure Humidity
    00:00 +20°C° 0.1 mm 2 mps 686 mmHg 94%
    01:00 +20°C° 0 mm 2 mps 685 mmHg 93%
    02:00 +19°C° 0 mm 2 mps 685 mmHg 93%
    03:00 +19°C° 0 mm 2 mps 685 mmHg 92%
    04:00 +19°C° 0 mm 2 mps 685 mmHg 92%
    05:00 +19°C° 0 mm 2 mps 685 mmHg 91%
    06:00 +19°C° 0 mm 2 mps 685 mmHg 90%
    07:00 +22°C° 0 mm 1 mps 686 mmHg 82%
    08:00 +25°C° 0 mm 1 mps 686 mmHg 73%
    09:00 +27°C° 0 mm 1 mps 687 mmHg 65%
    10:00 +28°C° 0 mm 1 mps 687 mmHg 62%
    11:00 +29°C° 0 mm 1 mps 687 mmHg 60%
    12:00 +30°C° 0 mm 2 mps 687 mmHg 57%
    13:00 +29°C° 0.5 mm 2 mps 686 mmHg 62%
    14:00 +29°C° 0.5 mm 1 mps 685 mmHg 68%
    15:00 +28°C° 0.5 mm 1 mps 685 mmHg 73%
    16:00 +27°C° 0.6 mm 1 mps 685 mmHg 79%
    17:00 +26°C° 0.6 mm 1 mps 685 mmHg 86%
    18:00 +23°C° 0.6 mm 0 mps 685 mmHg 92%
    19:00 +24°C° 0.1 mm 1 mps 685 mmHg 93%
    20:00 +23°C° 0.1 mm 1 mps 685 mmHg 94%
    21:00 +22°C° 0.1 mm 1 mps 685 mmHg 95%
    22:00 +20°C° 0 mm 2 mps 685 mmHg 94%
    23:00 +20°C° 0 mm 2 mps 685 mmHg 94%

    25 July, Thursday

    Time Temperature Precipitation Wind Pressure Humidity
    00:00 +19°C° 0 mm 2 mps 685 mmHg 94%
    01:00 +19°C° 0 mm 2 mps 685 mmHg 93%
    02:00 +20°C° 0 mm 2 mps 685 mmHg 91%
    03:00 +20°C° 0 mm 2 mps 685 mmHg 90%
    04:00 +20°C° 0 mm 1 mps 685 mmHg 90%
    05:00 +20°C° 0 mm 1 mps 685 mmHg 89%
    06:00 +20°C° 0 mm 1 mps 685 mmHg 89%
    07:00 +21°C° 0 mm 1 mps 686 mmHg 86%
    08:00 +22°C° 0 mm 1 mps 686 mmHg 83%
    09:00 +24°C° 0 mm 1 mps 687 mmHg 80%
    10:00 +25°C° 0.2 mm 1 mps 687 mmHg 77%
    11:00 +26°C° 0.2 mm 1 mps 687 mmHg 74%
    12:00 +28°C° 0.2 mm 1 mps 687 mmHg 72%
    13:00 +28°C° 0.6 mm 1 mps 686 mmHg 73%
    14:00 +28°C° 0.6 mm 1 mps 685 mmHg 74%
    15:00 +28°C° 0.6 mm 1 mps 685 mmHg 75%
    16:00 +27°C° 0.5 mm 1 mps 685 mmHg 81%
    17:00 +26°C° 0.5 mm 1 mps 685 mmHg 87%
    18:00 +25°C° 0.5 mm 1 mps 685 mmHg 93%
    19:00 +24°C° 0.3 mm 1 mps 685 mmHg 93%
    20:00 +22°C° 0.3 mm 1 mps 685 mmHg 93%
    21:00 +20°C° 0.3 mm 2 mps 685 mmHg 93%
    22:00 +20°C° 0 mm 2 mps 685 mmHg 92%
    23:00 +20°C° 0 mm 2 mps 685 mmHg 91%
    Show more